Temperature
20 20 19 19 19 19 19 19 19 19 19 18 18 18 18 18 18 18 18 18 18 18 18 18 18 18 18 18 18 17 17 17 17 16 16 16 16 16 16 15 15 15 15
20 20 19 19 19 19 19 19 19 19 19 18 18 18 18 18 18 18 18 18 18 18 18 17 17 18 18 18 17 17 17 17 17 16 16 16 16 15 15 15 15 15 15
20 19 19 19 19 19 19 19 18 18 18 18 18 18 18 18 18 18 18 18 18 17 17 17 17 17 17 17 17 17 17 16 16 16 16 16 15 15 15 15 15 15 15
20 19 19 19 19 19 18 18 18 18 18 18 18 18 18 18 18 18 18 18 18 17 17 17 17 17 17 17 17 17 17 16 16 16 16 16 15 15 15 15 15 15 14
20 20 19 19 19 18 18 18 18 18 18 18 18 18 18 18 18 18 18 17 17 17 17 17 17 17 17 17 17 16 16 16 16 16 16 15 15 15 15 15 14 14 14
20 20 19 19 19 18 18 18 18 18 18 18 18 18 18 18 18 18 18 17 17 17 17 17 17 17 17 17 16 16 16 16 16 16 15 15 15 15 15 14 14 14 14
20 19 19 19 19 18 18 18 18 18 18 18 18 18 17 18 18 17 17 17 17 17 17 16 16 16 16 16 16 16 16 16 16 16 15 15 15 15 15 15 14 14 14
20 19 19 19 19 18 18 18 18 18 18 18 18 17 17 17 17 17 17 17 17 17 17 16 16 16 16 16 16 16 16 16 16 15 15 15 15 15 15 14 14 14 14
19 19 19 19 18 18 18 18 18 18 18 17 17 17 17 17 17 17 17 17 17 17 16 16 16 16 16 16 16 16 16 16 15 15 15 15 15 15 15 14 14 14 14
20 19 19 19 18 18 18 18 18 18 17 17 17 17 17 17 17 17 17 17 16 16 16 16 16 16 16 16 16 16 16 15 15 15 15 15 15 15 14 14 14 13 13
19 19 19 18 18 18 18 18 18 17 17 17 17 17 17 17 17 17 17 16 16 16 16 16 16 16 16 16 16 15 15 15 15 15 15 15 15 14 14 14 14 13 13
19 19 19 18 18 18 18 17 17 17 17 17 17 17 17 17 17 17 17 16 16 16 16 16 15 16 15 15 15 15 15 15 14 14 14 14 14 14 14 14 14 13 13
19 18 18 18 18 18 17 17 17 17 17 16 16 16 16 16 16 17 16 16 16 16 16 15 15 15 15 15 15 15 14 14 14 14 14 14 14 14 13 13 13 13 13
18 18 18 18 17 17 17 17 17 16 16 16 16 16 16 16 16 16 16 16 16 15 15 15 15 15 15 15 15 14 14 14 14 13 13 13 13 13 13 13 13 13 13
17 17 17 17 17 17 17 17 16 16 16 16 16 16 16 16 16 16 16 16 16 15 15 15 14 14 14 14 14 14 14 14 13 13 13 13 13 13 13 13 12 12 12
17 17 17 17 17 16 16 16 16 16 16 16 16 16 16 16 16 16 16 15 15 15 15 14 14 14 14 14 14 14 14 13 13 13 13 12 12 12 12 12 12 12 12
17 17 17 17 16 16 16 16 16 16 16 16 16 16 16 16 16 15 15 15 15 15 14 14 14 14 13 13 13 13 13 13 13 13 12 12 12 12 12 12 12 12 12
16 16 16 16 16 16 16 16 16 16 16 16 16 16 15 16 15 15 15 14 14 14 14 14 13 13 13 13 13 13 13 13 13 12 12 12 12 12 12 11 11 11 11
16 16 16 16 16 16 16 16 16 16 16 16 15 15 15 15 15 14 14 14 14 14 13 13 13 13 13 13 13 13 13 12 12 12 12 12 12 11 11 11 11 11 11
16 16 16 16 16 16 16 16 16 16 16 16 15 15 15 15 15 14 14 14 14 13 13 13 13 13 13 13 13 12 12 12 12 12 12 12 11 11 11 11 11 11 10
15 16 16 16 16 16 16 16 16 15 15 15 15 15 15 15 15 14 14 14 14 14 13 13 13 13 13 13 12 12 12 12 12 12 12 11 11 11 11 11 10 10 10
15 15 15 16 15 15 15 15 15 15 15 15 15 15 15 14 14 14 14 14 14 14 13 13 13 13 12 12 12 12 12 12 12 11 11 11 11 10 10 10 10 10 10
15 15 15 15 15 15 15 15 15 15 15 15 15 15 15 14 14 14 14 14 13 13 13 13 13 12 12 12 12 12 12 11 11 11 11 11 10 10 10 10 9 9 9
15 15 15 15 15 15 15 15 15 15 15 15 15 14 14 14 14 14 14 13 13 13 13 12 12 12 12 12 12 11 11 11 11 11 10 10 10 10 9 9 9 9 9
14 15 15 15 15 15 15 15 15 15 15 15 14 14 14 14 13 13 13 13 13 13 12 12 12 12 11 11 11 11 11 11 10 10 10 10 10 9 9 9 9 9 9
14 14 14 14 14 14 14 14 14 14 14 14 14 14 13 13 13 13 13 12 12 12 12 12 11 11 11 11 11 11 10 10 10 10 10 10 9 9 9 8 8 8 8
Wind_Speed
8 7 5 6 5 4 3 3 2 2 2 2 2 2 2 1 1 0 0 1 1 0 1 0 0 1 2 2 1 1 1 2 2 1 2 2 2 2 3 4 5 7 7
8 7 6 6 5 5 4 3 3 2 2 2 2 2 2 2 1 1 1 1 1 1 1 1 0 0 1 1 1 1 0 1 2 2 2 2 2 2 2 3 3 5 6
9 9 7 6 5 4 4 3 3 3 2 2 2 2 1 2 2 1 1 1 1 1 1 1 1 1 1 1 1 0 1 1 2 2 2 1 1 2 2 2 2 2 4
8 8 7 6 5 5 4 4 4 3 3 2 2 2 1 1 1 1 1 1 1 1 1 1 0 0 0 0 0 0 0 0 1 2 2 2 1 1 1 2 2 2 2
8 8 7 6 5 5 4 4 4 3 4 3 3 2 2 2 1 1 2 2 2 2 2 1 1 2 2 1 0 1 0 1 1 1 1 1 1 1 2 2 2 2 2
7 7 6 6 6 5 5 4 4 4 3 3 3 2 2 1 3 3 1 1 1 2 2 1 2 2 2 2 1 1 0 1 2 1 1 1 1 1 2 2 1 2 2
7 7 7 7 6 6 6 5 5 4 4 3 3 2 2 3 4 4 2 0 0 0 0 1 1 1 3 2 1 2 2 3 3 2 2 2 2 1 2 3 2 3 3
8 7 7 7 6 6 5 5 5 4 3 3 3 3 2 3 3 3 1 1 0 1 1 1 1 0 0 1 1 1 2 2 3 3 3 3 2 1 2 3 4 4 4
9 8 8 7 7 6 5 5 5 4 4 4 3 3 3 2 3 3 2 1 1 2 2 1 1 1 0 0 1 2 2 3 3 3 3 3 4 3 2 2 3 3 3
8 8 8 8 7 7 6 5 4 4 4 4 4 4 4 3 4 4 3 2 2 2 2 1 2 1 1 1 1 2 3 3 3 2 3 4 5 5 6 4 3 3 3
6 7 8 8 8 7 6 5 5 4 4 4 4 4 4 5 6 6 5 2 2 3 2 2 1 3 3 3 3 3 4 4 3 3 3 3 4 4 4 4 4 3 4
5 6 8 8 8 8 6 6 6 6 5 5 4 4 4 4 5 6 6 5 4 2 2 1 1 4 4 5 4 4 4 3 3 3 3 3 3 3 3 3 5 5 5
5 5 6 6 6 5 6 6 6 5 5 4 4 4 4 3 3 6 6 6 4 2 2 2 0 4 4 4 6 5 3 2 3 3 3 3 3 3 2 2 3 4 5
5 5 5 5 5 5 4 5 5 5 5 4 4 4 3 3 2 2 3 3 3 3 3 2 3 5 5 4 2 2 3 3 3 4 3 3 3 2 2 2 3 3 4
5 4 5 5 5 4 4 2 4 2 3 3 3 2 3 3 3 4 4 3 3 3 2 2 2 2 3 3 3 2 3 2 3 4 4 3 3 3 2 2 2 3 4
4 4 4 5 5 5 4 3 2 2 4 4 4 3 2 3 4 5 4 3 3 3 3 3 3 2 3 3 3 3 3 3 3 3 3 3 3 3 3 3 3 3 4
5 5 5 5 5 5 5 4 4 2 2 3 4 4 4 4 4 4 3 1 2 3 3 3 3 3 3 3 3 3 3 2 2 3 3 2 3 3 3 3 3 3 4
5 5 5 5 5 5 5 5 5 5 4 3 4 6 7 6 6 6 4 2 1 3 4 4 4 4 3 3 3 3 2 2 1 2 2 2 2 3 3 3 3 3 3
5 4 4 4 5 5 5 5 5 5 4 4 3 4 6 6 5 6 6 4 4 4 5 4 4 4 3 3 3 2 2 2 2 2 1 2 2 3 3 3 3 4 4
5 5 5 5 5 5 6 6 5 5 5 5 5 5 5 5 4 4 6 6 5 5 5 4 3 3 2 2 2 1 2 1 1 1 1 2 2 3 3 4 4 3 3
4 4 6 5 5 5 5 5 4 4 5 5 5 6 9 7 6 6 6 6 6 5 4 3 2 2 2 2 2 2 2 1 1 1 2 2 3 3 3 3 4 4 4
3 4 4 5 4 3 3 3 4 4 4 4 3 5 10 7 6 5 5 5 5 4 3 2 2 2 2 2 2 1 1 1 2 2 3 3 3 3 4 4 4 4 4
4 4 3 3 3 3 4 4 5 4 4 4 3 4 6 5 4 4 4 3 3 3 2 1 2 2 2 1 0 0 1 1 2 2 3 3 3 4 4 4 5 5 4
4 4 3 2 2 3 3 4 4 4 3 3 3 4 4 4 3 3 3 3 2 2 2 2 2 1 1 1 1 0 1 2 3 3 4 4 4 4 4 4 4 4 4
4 3 3 2 3 3 3 3 3 3 2 2 2 2 3 3 2 2 2 2 2 1 1 1 1 0 0 1 1 1 1 2 3 4 4 4 4 5 4 5 4 4 4
4 3 3 2 2 3 3 3 2 2 1 1 1 2 2 2 1 1 1 1 2 2 2 1 1 1 1 0 1 2 2 2 3 5 5 3 3 4 4 4 5 5 5
Wind_Direction
174 176 171 169 179 181 175 166 170 161 142 144 152 158 159 150 139 102 188 170 169 217 262 150 226 351 341 339 347 39 81 118 132 127 108 112 113 97 146 177 169 175 180
171 168 170 168 174 179 172 160 159 160 151 154 169 172 178 154 147 169 264 85 98 90 42 17 321 13 27 340 358 39 78 161 145 146 149 151 170 182 187 209 186 198 187
170 171 167 169 172 176 167 160 160 156 158 160 160 162 170 152 158 151 104 72 67 74 80 37 11 357 21 22 39 308 240 168 140 152 168 162 184 200 194 230 230 228 212
164 166 165 170 172 172 167 160 160 152 157 162 155 158 157 143 152 152 153 152 132 106 105 109 112 32 72 261 194 283 322 241 172 175 171 183 196 200 188 239 244 245 242
161 164 164 166 165 160 158 163 159 158 168 157 157 161 159 171 184 158 176 173 170 164 158 141 117 93 81 52 51 47 332 282 242 229 201 190 217 197 237 245 249 257 242
160 163 161 162 161 164 162 162 159 163 169 158 165 165 179 180 101 104 109 171 168 180 178 161 160 139 134 125 83 67 147 249 283 276 281 259 258 254 261 264 259 262 261
161 165 164 163 162 167 173 168 171 172 174 169 169 164 141 97 91 96 89 146 159 158 168 197 237 165 152 158 187 217 231 244 235 234 268 278 267 272 267 272 276 267 265
167 170 166 166 167 170 172 171 172 170 178 180 182 169 159 141 124 116 93 192 246 262 250 234 250 52 281 155 206 211 244 256 243 231 251 271 275 310 256 259 266 265 261
174 174 172 172 168 173 175 177 177 175 181 192 181 175 169 161 161 159 163 206 235 258 259 231 146 153 321 111 241 261 266 262 246 241 241 251 264 266 249 271 284 288 283
177 175 171 170 172 178 179 182 182 181 191 193 183 184 180 178 175 178 186 225 237 248 246 181 119 96 114 120 258 264 275 283 286 270 250 249 243 240 232 221 244 265 280
175 171 170 173 178 179 178 180 182 189 195 197 193 190 184 184 180 185 189 222 251 251 237 214 183 162 176 209 237 256 263 282 274 259 251 239 242 239 221 216 225 245 262
170 172 174 177 189 185 177 184 188 193 196 200 197 198 190 182 173 182 190 214 252 283 290 313 189 179 204 220 231 261 278 290 278 273 270 262 254 248 241 234 231 237 247
166 171 174 177 178 173 178 184 189 194 202 205 199 202 200 189 172 175 190 212 235 252 311 349 304 204 221 230 235 252 266 272 277 279 280 279 275 269 266 250 243 242 254
172 170 171 171 174 176 186 183 186 192 200 200 200 204 192 181 175 175 197 212 222 233 260 266 229 217 236 255 248 231 232 249 264 274 286 289 290 282 274 270 262 258 257
167 164 169 171 167 168 172 178 183 177 187 196 203 200 190 185 184 173 183 197 214 220 222 223 225 219 231 233 227 227 232 234 257 272 276 282 288 288 282 282 278 276 271
173 179 185 180 174 177 174 170 88 140 147 143 137 141 153 140 147 148 161 186 210 202 205 227 230 236 248 254 253 245 231 235 254 268 271 276 288 294 292 288 280 277 282
183 189 191 186 181 185 189 187 181 170 143 147 166 158 163 160 156 165 169 182 217 181 207 239 240 237 241 248 252 257 257 240 239 257 267 281 289 294 292 288 284 287 288
196 193 197 194 185 191 198 199 201 199 197 205 198 188 185 182 180 190 180 150 210 200 225 234 245 249 245 250 255 249 257 258 252 261 267 283 288 292 292 293 287 291 292
208 207 201 203 203 202 199 205 211 209 209 208 197 179 188 182 188 203 186 209 228 232 234 235 239 247 251 248 251 251 246 240 244 255 258 279 285 286 286 289 288 288 282
216 214 210 215 213 208 207 209 213 208 202 205 205 189 172 171 194 200 206 221 236 238 238 242 248 255 259 256 252 252 260 250 249 266 283 278 279 283 288 292 295 293 285
213 205 210 222 227 220 218 213 211 214 212 208 206 182 177 196 211 212 210 216 230 238 239 239 247 264 270 260 258 253 259 290 300 297 291 280 278 282 284 285 285 285 289
219 213 215 217 217 223 224 221 223 222 220 216 198 184 185 209 221 219 219 223 227 226 230 235 256 272 289 289 287 314 335 346 336 322 309 298 296 292 291 287 285 286 289
249 237 223 216 217 210 217 220 222 224 220 207 197 190 193 215 221 215 217 223 222 220 208 216 262 276 257 248 230 52 321 303 299 293 289 291 293 290 287 288 291 294 297
240 237 221 210 224 226 227 228 224 222 216 212 206 197 189 199 219 213 219 219 214 215 212 208 223 251 311 17 334 6 31 339 312 292 288 282 283 285 287 292 295 293 296
244 243 232 213 220 238 244 246 239 230 218 206 198 209 206 204 222 219 221 216 214 210 196 180 177 124 93 54 9 32 50 23 348 315 290 283 288 292 292 291 294 294 293
235 249 248 233 226 233 234 239 242 229 215 209 205 224 221 210 217 220 222 223 229 218 190 184 186 159 122 91 80 94 88 40 339 318 296 284 288 294 298 295 297 297 294
Height
1520 1522 1524 1525 1527 1528 1529 1530 1531 1532 1532 1532 1533 1533 1533 1533 1534 1534 1535 1535 1535 1536 1536 1536 1536 1536 1536 1536 1537 1537 1537 1537 1537 1538 1538 1538 1538 1538 1537 1537 1536 1536 1536
1518 1520 1522 1524 1525 1527 1528 1529 1530 1530 1531 1531 1532 1532 1533 1533 1533 1534 1534 1535 1535 1534 1535 1535 1535 1535 1535 1535 1535 1535 1536 1536 1536 1536 1537 1537 1537 1536 1536 1535 1535 1535 1534
1517 1519 1520 1522 1524 1525 1526 1528 1528 1529 1530 1530 1531 1531 1532 1532 1532 1533 1533 1533 1534 1534 1534 1534 1533 1534 1534 1534 1533 1534 1534 1535 1535 1535 1535 1535 1535 1534 1534 1534 1533 1533 1533
1515 1516 1518 1520 1522 1523 1525 1526 1527 1528 1529 1529 1530 1530 1531 1531 1531 1532 1532 1532 1532 1533 1533 1533 1533 1533 1532 1533 1533 1533 1533 1533 1533 1533 1533 1533 1533 1533 1532 1532 1532 1532 1532
1512 1514 1516 1518 1520 1522 1523 1524 1526 1527 1528 1528 1529 1529 1530 1530 1531 1531 1531 1531 1531 1532 1532 1532 1532 1532 1532 1532 1532 1532 1532 1532 1532 1532 1532 1532 1532 1531 1531 1530 1530 1530 1530
1510 1512 1515 1517 1518 1520 1521 1523 1524 1525 1526 1527 1528 1528 1529 1529 1530 1530 1530 1530 1530 1530 1530 1530 1531 1531 1531 1531 1531 1531 1531 1531 1531 1531 1531 1530 1530 1530 1530 1529 1528 1528 1527
1508 1510 1513 1514 1516 1517 1519 1521 1522 1523 1524 1525 1526 1527 1527 1528 1528 1529 1528 1529 1529 1529 1529 1529 1530 1530 1530 1530 1530 1529 1530 1530 1530 1530 1529 1529 1528 1528 1527 1527 1526 1525 1525
1506 1508 1510 1512 1514 1515 1517 1519 1520 1521 1523 1523 1524 1525 1525 1526 1527 1527 1527 1527 1527 1528 1528 1528 1528 1528 1528 1528 1528 1527 1527 1527 1527 1527 1527 1527 1526 1526 1525 1525 1524 1523 1522
1503 1505 1507 1509 1511 1513 1515 1516 1518 1519 1520 1521 1522 1523 1523 1524 1525 1525 1525 1525 1525 1526 1526 1527 1527 1526 1526 1526 1526 1525 1525 1525 1525 1525 1524 1524 1524 1523 1523 1522 1521 1520 1519
1500 1502 1504 1507 1509 1510 1512 1514 1516 1517 1518 1519 1520 1521 1521 1522 1522 1523 1523 1523 1523 1524 1524 1524 1524 1524 1524 1524 1524 1523 1523 1523 1523 1522 1522 1521 1521 1520 1520 1519 1518 1517 1516
1498 1500 1502 1504 1506 1508 1510 1512 1514 1515 1516 1518 1518 1519 1519 1520 1520 1521 1521 1521 1521 1522 1522 1522 1522 1522 1522 1522 1522 1521 1521 1521 1520 1519 1519 1518 1518 1517 1516 1515 1515 1514 1513
1495 1497 1499 1501 1504 1506 1508 1510 1511 1513 1513 1514 1516 1516 1517 1517 1518 1518 1518 1519 1519 1519 1520 1520 1520 1520 1520 1519 1519 1519 1518 1518 1517 1517 1516 1515 1514 1514 1513 1512 1511 1510 1509
1493 1495 1496 1499 1500 1503 1505 1507 1509 1510 1511 1512 1513 1514 1514 1515 1515 1515 1515 1516 1516 1517 1517 1517 1517 1517 1517 1516 1516 1516 1515 1515 1514 1513 1513 1512 1511 1511 1510 1509 1508 1507 1506
1490 1492 1494 1496 1498 1500 1502 1503 1505 1507 1508 1509 1510 1511 1512 1512 1512 1512 1512 1513 1513 1513 1514 1514 1515 1515 1514 1514 1513 1513 1512 1512 1511 1511 1510 1509 1508 1508 1506 1505 1504 1503 1502
1488 1489 1491 1493 1495 1497 1499 1501 1502 1503 1505 1506 1507 1508 1508 1508 1509 1510 1510 1510 1510 1511 1511 1511 1511 1511 1511 1510 1510 1510 1509 1509 1508 1507 1507 1506 1505 1504 1503 1502 1501 1500 1499
1485 1487 1489 1491 1493 1494 1496 1498 1499 1501 1502 1503 1504 1505 1506 1506 1507 1507 1507 1508 1508 1508 1508 1508 1508 1508 1508 1507 1507 1506 1506 1505 1505 1504 1504 1503 1502 1501 1500 1499 1498 1497 1496
1483 1485 1487 1489 1490 1492 1494 1495 1496 1498 1499 1500 1501 1502 1503 1503 1504 1505 1505 1505 1505 1506 1505 1505 1505 1505 1505 1505 1504 1504 1503 1503 1502 1501 1500 1500 1498 1497 1496 1495 1494 1494 1492
1482 1483 1485 1486 1487 1489 1491 1492 1494 1495 1496 1496 1497 1498 1499 1500 1501 1501 1502 1502 1502 1502 1502 1502 1502 1502 1502 1502 1501 1500 1500 1499 1498 1498 1497 1496 1495 1494 1493 1492 1492 1491 1489
1479 1481 1482 1483 1485 1486 1488 1489 1491 1492 1493 1493 1494 1494 1495 1496 1497 1498 1498 1499 1499 1499 1498 1498 1499 1499 1499 1498 1498 1497 1496 1496 1495 1494 1493 1493 1492 1491 1490 1489 1488 1487 1486
1477 1478 1480 1481 1482 1483 1485 1486 1487 1488 1488 1489 1490 1491 1492 1493 1494 1494 1494 1495 1495 1495 1495 1495 1496 1496 1495 1495 1494 1493 1493 1492 1491 1491 1490 1489 1488 1487 1486 1485 1485 1483 1482
1475 1475 1477 1478 1479 1480 1482 1483 1483 1484 1485 1485 1487 1488 1489 1489 1490 1491 1491 1492 1492 1492 1492 1492 1492 1492 1492 1492 1491 1490 1489 1489 1488 1487 1486 1485 1484 1483 1482 1482 1481 1480 1479
1472 1473 1474 1475 1476 1477 1478 1480 1480 1481 1482 1483 1483 1484 1485 1486 1487 1488 1488 1488 1488 1489 1489 1489 1488 1488 1487 1487 1487 1487 1486 1485 1484 1483 1482 1481 1480 1479 1479 1478 1477 1476 1475
1469 1470 1471 1472 1473 1474 1475 1476 1477 1478 1479 1479 1479 1480 1481 1482 1483 1483 1484 1484 1485 1485 1484 1484 1484 1484 1484 1483 1482 1482 1482 1481 1480 1479 1478 1477 1476 1475 1474 1474 1473 1472 1471
1467 1468 1468 1469 1470 1471 1472 1473 1473 1474 1475 1475 1475 1476 1476 1477 1478 1479 1480 1481 1481 1481 1481 1481 1480 1480 1480 1479 1479 1478 1478 1477 1476 1476 1475 1473 1473 1472 1471 1470 1469 1468 1467
1465 1465 1466 1466 1467 1468 1469 1470 1471 1471 1471 1472 1472 1472 1473 1474 1475 1476 1477 1477 1477 1476 1477 1477 1476 1476 1476 1475 1475 1474 1474 1473 1473 1472 1471 1470 1469 1468 1467 1466 1465 1464 1463
1462 1463 1463 1464 1465 1466 1467 1467 1468 1468 1468 1468 1469 1470 1471 1471 1472 1472 1473 1473 1473 1473 1473 1473 1473 1472 1471 1471 1471 1470 1470 1469 1469 1468 1467 1466 1464 1463 1462 1462 1461 1460 1460